Regional Weather Roundup
Issued by NWS

Home | Current Version | Previous Version | Text Only | Print | Product List | Glossary On
Versions: 1 2 3 4 5 6 7 8 9 10 11 12 13 14 15 16 17 18 19 20 21 22 23 24 25 26 27 28 29 30 31 32 33 34 35 36 37 38 39 40 41 42 43 44 45 46 47 48 49 50
000
ASUS43 KTOP 191959
RWRKS

WEATHER ROUNDUP FOR KANSAS
NATIONAL WEATHER SERVICE GOODLAND KS
300 PM CDT THU OCT 19 2017

NOTE:  "FAIR" INDICATES FEW OR NO CLOUDS BELOW 12,000 FEET WITH NO
SIGNIFICANT WEATHER AND/OR OBSTRUCTIONS TO VISIBILITY.

KSZ001>006-013>018-027>032-041>047-192100-
NORTHWEST KANSAS

CITY           SKY/WX    TMP DP  RH WIND       PRES   REMARKS
GOODLAND       FAIR      80  44  27 S23G31    29.97F
HAYS           FAIR      81  48  31 S16G23    29.98F
HILL CITY      FAIR      84  45  25 S15G25    29.97F
RUSSELL        FAIR      80  48  32 S18G26    29.98F
$$

KSZ061>065-074>080-084>089-192100-
SOUTHWEST KANSAS

CITY           SKY/WX    TMP DP  RH WIND       PRES   REMARKS
DODGE CITY     FAIR      80  42  25 SE21G29   30.01F
ELKHART          N/A     77  48  35 SE21        N/A
GARDEN CITY    FAIR      80  43  26 S14G25    29.98F
GREAT BEND     FAIR      81  45  28 S17       30.00F
LIBERAL        FAIR      81  46  29 S22       29.99F
$$

KSZ066>073-081>083-090>101-192100-
SOUTHEAST KANSAS

CITY           SKY/WX    TMP DP  RH WIND       PRES   REMARKS
CHANUTE        FAIR      79  52  38 S15       30.10F
COFFEYVILLE    FAIR      77  54  44 S13       30.10F
HUTCHINSON     FAIR      82  48  30 S17       30.02F
MEDICINE LODGE   N/A     77  47  34 S9G21     30.02F
NEWTON         FAIR      79  49  34 S13G24    30.05F
PARSONS        FAIR      78  54  43 S9        30.11F
WICHITA INTL   FAIR      79  49  34 S16       30.04F
WICHITA JABRA  FAIR      78  49  35 S12G21    30.05F
WICHITA MCCONL FAIR      79  46  31 SW15      30.05F
WINFIELD       FAIR      79  52  38 S15       30.07F
$$

KSZ007>012-019>026-033>040-048>060-102>105-192100-
NORTHEAST KANSAS

CITY           SKY/WX    TMP DP  RH WIND       PRES   REMARKS
CONCORDIA      FAIR      80  51  36 S13       29.99F
EMPORIA        FAIR      80  50  34 S12       30.06F
LAWRENCE       FAIR      80  53  39 S10       30.05F
MANHATTAN      FAIR      83  52  34 S15       30.01F
OLATHE IND     FAIR      79  53  40 S12G17    30.08F
OLATHE EXE     FAIR      77  51  40 S10       30.08F
SALINA         FAIR      82  51  34 S13       30.01F
TOPEKA BILLARD FAIR      81  52  36 S10       30.04F
TOPEKA FORBES  FAIR      82  53  36 S12       30.05F
$$




USA.gov is the U.S. government's official web portal to all federal, state and local government web resources and services.